Location: Bluff Heights
(33.7692°N, 118.1592°W)
Time: 03:06:34
(UTC+00:00)

S-56A Canister/Altair - All Passes

Search period start: 06 August 2021 00:00
Search period end: 16 August 2021 00:00
Orbit: 631 x 2501 km, 38.9° (Epoch: 05 August)

Date Brightness Start Highest point End Pass type
(mag) Time Alt. Az. Time Alt. Az. Time Alt. Az.
06 Aug - 00:53:19 10° WNW 01:08:07 78° NNE 01:22:36 10° E daylight
06 Aug - 03:00:16 10° WNW 03:15:17 67° SW 03:27:49 10° SE visible
06 Aug - 05:09:22 10° W 05:19:52 25° SW 05:28:34 10° S visible
06 Aug - 18:08:43 10° S 18:15:32 24° SE 18:24:24 10° E daylight
06 Aug - 20:09:21 10° SW 20:19:23 71° SSE 20:33:36 10° ENE daylight
06 Aug - 22:13:50 10° W 22:26:07 75° N 22:41:29 10° ENE daylight
07 Aug - 00:20:00 10° WNW 00:34:19 76° NNE 00:49:12 10° E daylight
07 Aug - 02:26:39 10° WNW 02:41:45 72° SSW 02:54:58 10° SE daylight
07 Aug - 04:35:04 10° WNW 04:46:48 30° SW 04:56:36 10° S visible
07 Aug - 17:37:11 10° SSE 17:42:50 19° SE 17:49:55 10° E daylight
07 Aug - 19:36:51 10° SW 19:46:12 64° SE 19:59:44 10° ENE daylight
07 Aug - 21:40:53 10° W 21:52:29 77° NNW 22:07:42 10° ENE daylight
07 Aug - 23:46:44 10° WNW 00:00:31 74° N 00:15:41 10° E daylight
08 Aug - 01:53:09 10° WNW 02:08:10 77° SSW 02:21:58 10° SE daylight
08 Aug - 04:00:59 10° WNW 04:13:39 35° SW 04:24:24 10° SSE visible
08 Aug - 17:06:07 10° SSE 17:10:13 14° SE 17:15:01 10° E daylight
08 Aug - 19:04:28 10° SW 19:13:08 57° SE 19:25:51 10° ENE daylight
08 Aug - 21:08:02 10° WSW 21:18:56 79° NNW 21:33:53 10° ENE daylight
08 Aug - 23:13:33 10° WNW 23:26:45 73° N 23:42:03 10° E daylight
09 Aug - 01:19:43 10° WNW 01:34:31 82° SSW 01:48:52 10° ESE daylight
09 Aug - 03:27:04 10° WNW 03:40:25 40° SW 03:52:01 10° SSE visible
09 Aug - 18:32:12 10° SSW 18:40:11 50° SE 18:51:56 10° ENE daylight
09 Aug - 20:35:16 10° WSW 20:45:28 82° NNW 21:00:02 10° ENE daylight
09 Aug - 22:40:29 10° W 22:53:00 72° N 23:08:20 10° E daylight
10 Aug - 00:46:23 10° WNW 01:00:50 87° SSW 01:15:37 10° ESE daylight
10 Aug - 02:53:17 10° WNW 03:07:05 45° SW 03:19:29 10° SSE visible
10 Aug - 05:07:07 10° WSW 05:11:07 12° WSW 05:14:56 10° SW visible
10 Aug - 18:00:01 10° SSW 18:07:20 42° SE 18:18:02 10° ENE daylight
10 Aug - 20:02:35 10° WSW 20:12:08 86° NNW 20:26:10 10° ENE daylight
10 Aug - 22:07:29 10° W 22:19:20 71° N 22:34:32 10° E daylight
11 Aug - 00:13:10 10° WNW 00:27:07 89° NNE 00:42:14 10° ESE daylight
11 Aug - 02:19:38 10° WNW 02:33:41 50° SW 02:46:46 10° SSE daylight
11 Aug - 04:30:59 10° W 04:38:06 15° SW 04:44:43 10° SSW visible
11 Aug - 17:27:57 10° SSW 17:34:36 35° SE 17:44:05 10° ENE daylight
11 Aug - 19:30:00 10° WSW 19:38:53 89° SSE 19:52:18 10° ENE daylight
11 Aug - 21:34:35 10° W 21:45:43 70° N 22:00:40 10° E daylight
11 Aug - 23:40:01 10° WNW 23:53:26 85° NNE 00:08:45 10° ESE daylight
12 Aug - 01:46:08 10° WNW 02:00:12 55° SW 02:13:57 10° SE daylight
12 Aug - 03:55:59 10° W 04:05:00 19° SW 04:13:23 10° SSW visible
12 Aug - 16:56:02 10° S 17:01:57 29° SE 17:10:08 10° ENE daylight
12 Aug - 18:57:30 10° WSW 19:05:45 84° SSE 19:18:27 10° ENE daylight
12 Aug - 21:01:46 10° W 21:12:11 70° N 21:26:45 10° E daylight
12 Aug - 23:06:57 10° WNW 23:19:45 82° NNE 23:35:08 10° ESE daylight
13 Aug - 01:12:44 10° WNW 01:26:41 60° SW 01:40:57 10° SE daylight
13 Aug - 03:21:30 10° W 03:31:51 23° SW 03:41:35 10° S visible
13 Aug - 16:24:17 10° S 16:29:23 23° SE 16:36:07 10° E daylight
13 Aug - 18:25:04 10° WSW 18:32:43 77° SSE 18:44:37 10° ENE daylight
13 Aug - 20:29:01 10° W 20:38:44 70° N 20:52:49 10° ENE daylight
13 Aug - 22:33:59 10° WNW 22:46:06 79° NNE 23:01:25 10° ESE daylight
14 Aug - 00:39:27 10° WNW 00:53:08 65° SSW 01:07:49 10° SE daylight
14 Aug - 02:47:22 10° W 02:58:37 27° SW 03:09:27 10° S visible
14 Aug - 15:52:48 10° SSE 15:56:53 17° SE 16:01:55 10° E daylight
14 Aug - 17:52:43 10° SW 17:59:48 69° SSE 18:10:51 10° ENE daylight
14 Aug - 19:56:21 10° W 20:05:23 71° N 20:18:53 10° ENE daylight
14 Aug - 22:01:06 10° WNW 22:12:30 76° NNE 22:27:36 10° E daylight
15 Aug - 00:06:17 10° WNW 00:19:33 70° SSW 00:34:34 10° SE daylight
15 Aug - 02:13:28 10° W 02:25:19 31° SW 02:37:05 10° S daylight
15 Aug - 15:21:53 10° SSE 15:24:25 12° SE 15:27:17 10° ESE daylight
15 Aug - 17:20:26 10° SW 17:27:00 61° SSE 17:37:07 10° ENE daylight
15 Aug - 19:23:44 10° W 19:32:08 72° N 19:44:58 10° ENE daylight
15 Aug - 21:28:17 10° WNW 21:38:59 73° N 21:53:44 10° E daylight
